Stanton, MN

12:07 PM CDT on March 23, 2017 (GMT -0500)
Stanton

Weather History for KSYN - February, 2014

Change the Weather History Date:

Thursday, February 6, 2014

  Actual Average (KLVN) Record (KLVN)
Temperature  
Mean Temperature -4 °F -  
Max Temperature 4 °F 21 °F 47 °F (1991)
Min Temperature -11 °F 4 °F -25 °F (1982)
Degree Days  
Heating Degree Days 68    
Moisture  
Dew Point -11 °F    
Average Humidity 69    
Maximum Humidity 77    
Minimum Humidity 57    
Precipitation  
Precipitation 0.00 in - - ()
Sea Level Pressure  
Sea Level Pressure 30.35 in    
Wind  
Wind Speed 8 mph (WSW)    
Max Wind Speed 15 mph    
Max Gust Speed 21 mph    
Visibility 10 miles    
Events      
Averages and records for this station are not official NWS values.
T = Trace of Precipitation, MM = Missing Value Source: NWS Daily Summary

Daily Weather History Graph

Daily Weather History Graph

Search for Another Location

Airport or City:

Trip Planner

Search our weather history database for the weather conditions in past years. The results will help you decide how hot, cold, wet, or windy it might be!

Date:

Astronomy

Feb. 06, 2014 Rise Set
Actual Time 7:24 AM CST 5:28 PM CST
Civil Twilight 6:53 AM CST 5:58 PM CST
Nautical Twilight 6:19 AM CST 6:33 PM CST
Astronomical Twilight 5:45 AM CST 7:07 PM CST
Moon 10:59 AM CST (2/6) 12:40 AM CST (2/6)
Length of Visible Light 11h 05m
Length of Day
10h 03m
Waxing Crescent, 49% of the Moon is Illuminated
Feb 6
Waxing Crescent
Feb 6
First Quarter
Feb 14
Full
Feb 22
Last Quarter
Mar 1
New

Hourly Weather History & Observations

Time (CST) Temp. Windchill Dew Point Humidity Pressure Visibility Wind Dir Wind Speed Gust Speed Precip Events Conditions
12:11 AM -6.7 °F -22.3 °F -13.2 °F 73% 30.46 in 10.0 mi West 8.1 mph - N/A   Clear
12:32 AM -6.7 °F -22.3 °F -13.4 °F 73% 30.45 in 10.0 mi West 8.1 mph - N/A   Clear
12:52 AM -6.7 °F -22.3 °F -13.4 °F 73% 30.45 in 10.0 mi West 8.1 mph - N/A   Clear
1:12 AM -7.2 °F -23.0 °F -14.1 °F 72% 30.44 in 10.0 mi West 8.1 mph - N/A   Clear
1:32 AM -7.8 °F -22.3 °F -14.3 °F 73% 30.44 in 10.0 mi West 6.9 mph - N/A   Clear
1:52 AM -7.6 °F -23.4 °F -14.1 °F 73% 30.44 in 10.0 mi West 8.1 mph - N/A   Clear
2:12 AM -7.4 °F -20.4 °F -14.1 °F 73% 30.44 in 10.0 mi West 5.8 mph - N/A   Clear
2:32 AM -7.6 °F -22.1 °F -14.1 °F 73% 30.44 in 10.0 mi West 6.9 mph - N/A   Clear
2:52 AM -7.1 °F -21.4 °F -13.5 °F 73% 30.43 in 10.0 mi West 6.9 mph - N/A   Scattered Clouds
3:12 AM -7.8 °F -20.8 °F -14.1 °F 74% 30.43 in 10.0 mi West 5.8 mph - N/A   Scattered Clouds
3:32 AM -7.8 °F -23.6 °F -13.9 °F 75% 30.43 in 10.0 mi West 8.1 mph - N/A   Clear
3:52 AM -7.6 °F -23.4 °F -13.2 °F 77% 30.42 in 10.0 mi West 8.1 mph - N/A   Clear
4:12 AM -7.2 °F -18.3 °F -13.2 °F 75% 30.43 in 10.0 mi WSW 4.6 mph - N/A   Clear
4:32 AM -8.5 °F -21.6 °F -14.1 °F 77% 30.43 in 10.0 mi WSW 5.8 mph - N/A   Clear
4:52 AM -9.4 °F -26.8 °F -14.8 °F 77% 30.42 in 10.0 mi West 9.2 mph - N/A   Clear
5:12 AM -9.8 °F -26.1 °F -15.3 °F 76% 30.42 in 10.0 mi West 8.1 mph - N/A   Clear
5:32 AM -10.3 °F -26.7 °F -15.7 °F 77% 30.42 in 10.0 mi WSW 8.1 mph - N/A   Clear
5:52 AM -10.1 °F -26.5 °F -15.7 °F 76% 30.41 in 10.0 mi WSW 8.1 mph - N/A   Clear
6:12 AM -10.1 °F -25.1 °F -15.9 °F 76% 30.41 in 10.0 mi West 6.9 mph - N/A   Clear
6:32 AM -10.7 °F -25.8 °F -16.1 °F 77% 30.40 in 10.0 mi West 6.9 mph - N/A   Clear
6:52 AM -11.2 °F -26.4 °F -17.0 °F 76% 30.40 in 10.0 mi West 6.9 mph - N/A   Clear
7:12 AM -11.2 °F -27.8 °F -16.8 °F 76% 30.40 in 10.0 mi West 8.1 mph - N/A   Clear
7:32 AM -11.2 °F -26.4 °F -17.0 °F 76% 30.40 in 10.0 mi West 6.9 mph - N/A   Clear
7:52 AM -10.8 °F -27.4 °F -16.8 °F 75% 30.41 in 10.0 mi WSW 8.1 mph - N/A   Clear
8:12 AM -10.3 °F -26.7 °F -16.4 °F 74% 30.41 in 10.0 mi WSW 8.1 mph - N/A   Clear
8:32 AM -9.4 °F -24.3 °F -15.5 °F 74% 30.41 in 10.0 mi WSW 6.9 mph - N/A   Clear
8:52 AM -8.3 °F -25.5 °F -14.8 °F 73% 30.41 in 10.0 mi West 9.2 mph - N/A   Clear
9:12 AM -7.4 °F -25.4 °F -14.3 °F 72% 30.41 in 10.0 mi West 10.4 mph - N/A   Clear
9:32 AM -6.7 °F -19.5 °F -14.1 °F 70% 30.41 in 10.0 mi WSW 5.8 mph - N/A   Clear
9:52 AM -5.1 °F -20.4 °F -13.2 °F 68% 30.40 in 10.0 mi WSW 8.1 mph - N/A   Clear
10:12 AM -4.0 °F -19.0 °F -13.0 °F 65% 30.40 in 10.0 mi WSW 8.1 mph - N/A   Clear
10:32 AM -3.3 °F -19.3 °F -12.3 °F 65% 30.40 in 10.0 mi WSW 9.2 mph - N/A   Clear
10:52 AM -2.2 °F -18.9 °F -11.9 °F 63% 30.40 in 10.0 mi West 10.4 mph 16.1 mph N/A   Clear
11:12 AM -1.3 °F -16.8 °F -11.2 °F 63% 30.40 in 10.0 mi West 9.2 mph - N/A   Clear
11:32 AM -0.4 °F -15.7 °F -10.5 °F 62% 30.39 in 10.0 mi West 9.2 mph - N/A   Clear
11:52 AM 0.1 °F -17.7 °F -10.3 °F 61% 30.38 in 10.0 mi West 12.7 mph - N/A   Clear
12:12 PM 0.9 °F -16.0 °F -9.9 °F 61% 30.37 in 10.0 mi West 11.5 mph - N/A   Clear
12:32 PM 1.8 °F -14.0 °F -9.6 °F 59% 30.36 in 10.0 mi West 10.4 mph - N/A   Clear
12:52 PM 2.1 °F -14.4 °F -9.2 °F 59% 30.35 in 10.0 mi West 11.5 mph 16.1 mph N/A   Clear
1:12 PM 2.8 °F -13.5 °F -9.0 °F 58% 30.35 in 10.0 mi West 11.5 mph - N/A   Clear
1:32 PM 2.8 °F -15.7 °F -9.4 °F 57% 30.33 in 10.0 mi WSW 15.0 mph 19.6 mph N/A   Clear
1:51 PM 3.2 °F -14.6 °F -8.9 °F 57% 30.33 in 10.0 mi West 13.8 mph - N/A   Clear
2:12 PM 3.7 °F -14.6 °F -8.5 °F 57% 30.32 in 10.0 mi West 15.0 mph 20.7 mph N/A   Clear
2:32 PM 4.1 °F -14.1 °F -7.8 °F 58% 30.32 in 10.0 mi West 15.0 mph - N/A   Clear
2:51 PM 4.1 °F -12.0 °F -6.9 °F 60% 30.31 in 10.0 mi WSW 11.5 mph 17.3 mph N/A   Clear
3:12 PM 4.1 °F -12.0 °F -6.0 °F 63% 30.30 in 10.0 mi WSW 11.5 mph - N/A   Scattered Clouds
3:32 PM 4.6 °F -12.0 °F -6.7 °F 59% 30.30 in 10.0 mi West 12.7 mph - N/A   Scattered Clouds
3:51 PM 4.6 °F -12.0 °F -6.0 °F 62% 30.29 in 10.0 mi WSW 12.7 mph - N/A   Scattered Clouds
4:12 PM 4.5 °F -9.8 °F -5.8 °F 63% 30.29 in 10.0 mi WSW 9.2 mph - N/A   Scattered Clouds
4:32 PM 3.9 °F -13.7 °F -5.8 °F 64% 30.28 in 10.0 mi WSW 13.8 mph 18.4 mph N/A   Scattered Clouds
4:51 PM 3.6 °F -12.6 °F -6.7 °F 62% 30.27 in 10.0 mi WSW 11.5 mph - N/A   Clear
5:12 PM 2.7 °F -12.0 °F -7.6 °F 62% 30.27 in 10.0 mi WSW 9.2 mph - N/A   Clear
5:32 PM 2.3 °F -13.4 °F -7.4 °F 64% 30.27 in 10.0 mi WSW 10.4 mph - N/A   Clear
5:51 PM 1.9 °F -12.9 °F -7.2 °F 65% 30.26 in 10.0 mi WSW 9.2 mph - N/A   Clear
6:12 PM 1.6 °F -14.2 °F -6.9 °F 68% 30.26 in 10.0 mi WSW 10.4 mph - N/A   Clear
6:32 PM 1.2 °F -11.5 °F -6.9 °F 69% 30.26 in 10.0 mi WSW 6.9 mph - N/A   Clear
6:51 PM 0.5 °F -12.3 °F -7.4 °F 69% 30.26 in 10.0 mi WSW 6.9 mph - N/A   Clear
7:12 PM 0.1 °F -14.0 °F -7.2 °F 71% 30.26 in 10.0 mi WSW 8.1 mph - N/A   Mostly Cloudy
7:32 PM -0.4 °F -12.0 °F -7.8 °F 71% 30.26 in 10.0 mi WSW 5.8 mph - N/A   Overcast
7:52 PM 0.3 °F -11.2 °F -7.4 °F 70% 30.25 in 10.0 mi WSW 5.8 mph - N/A   Overcast
8:12 PM 0.5 °F -12.3 °F -7.1 °F 70% 30.25 in 10.0 mi WSW 6.9 mph - N/A   Overcast
8:32 PM 0.1 °F -12.8 °F -7.2 °F 71% 30.25 in 10.0 mi WSW 6.9 mph - N/A   Overcast
8:52 PM -0.4 °F -13.4 °F -7.8 °F 71% 30.25 in 10.0 mi SW 6.9 mph - N/A   Overcast
9:12 PM 0.3 °F -14.8 °F -6.5 °F 73% 30.25 in 10.0 mi SW 9.2 mph - N/A   Overcast
9:32 PM 0.5 °F -14.6 °F -6.3 °F 73% 30.25 in 10.0 mi SW 9.2 mph - N/A   Overcast
9:52 PM 1.0 °F -14.0 °F -6.2 °F 72% 30.25 in 10.0 mi WSW 9.2 mph - N/A   Overcast
10:12 PM 1.2 °F -12.7 °F -6.2 °F 71% 30.24 in 10.0 mi WSW 8.1 mph - N/A   Overcast
10:32 PM 0.5 °F -14.6 °F -6.7 °F 72% 30.24 in 10.0 mi WSW 9.2 mph - N/A   Overcast
10:52 PM 0.1 °F -14.0 °F -7.4 °F 70% 30.23 in 10.0 mi SW 8.1 mph - N/A   Scattered Clouds
11:12 PM 0.1 °F -15.1 °F -7.1 °F 72% 30.23 in 10.0 mi WSW 9.2 mph - N/A   Scattered Clouds
11:32 PM 0.1 °F -14.0 °F -7.4 °F 70% 30.23 in 10.0 mi WSW 8.1 mph - N/A   Scattered Clouds
11:52 PM -0.2 °F -14.4 °F -8.5 °F 68% 30.22 in 10.0 mi SW 8.1 mph - N/A   Scattered Clouds